Stations météo

Publicité
Annecy-Meythet, France (7490): Température de l'air & dewpoint: 10.08.2017 17:00:00 - 16.08.2017 17:00:00 (CEST)Annecy-Meythet, France (7490): Température de l'air 5cm: 10.08.2017 17:00:00 - 16.08.2017 17:00:00 (CEST)Annecy-Meythet, France (7490): Température de l'air -20cm & Température de l'air -100cm: 10.08.2017 17:00:00 - 16.08.2017 17:00:00 (CEST)Annecy-Meythet, France (7490): Vitesse du vent & gusts: 10.08.2017 17:00:00 - 16.08.2017 17:00:00 (CEST)Annecy-Meythet, France (7490): Direction du vent: 10.08.2017 17:00:00 - 16.08.2017 17:00:00 (CEST)Annecy-Meythet, France (7490): reduced air pressure: 10.08.2017 17:00:00 - 16.08.2017 17:00:00 (CEST)Annecy-Meythet, France (7490): visibility: 10.08.2017 17:00:00 - 16.08.2017 17:00:00 (CEST)Annecy-Meythet, France (7490): Quantités de précipitations: 10.08.2017 17:00:00 - 16.08.2017 17:00:00 (CEST)
Date & Time tt [°C] td [°C] tt 5cm [°C] tt -20cm [°C] tt -100cm [°C] ff [km/h] ff [knt] fx [km/h] fx [knt] dd ppp [hPa] vv [km] rr [mm]
16.08.2017 17:00:00 27,5 18,2 29,7 24,4 19,2 10 5 16 9 S 1017,2 49 0,0
16.08.2017 16:00:00 26,9 16,2 28,7 24,0 19,2 6 3 14 7 SW 1017,3 60 0,0
16.08.2017 15:00:00 26,5 18,1 29,1 23,5 19,2 6 3 14 8 SSW 1017,8 59 0,0
16.08.2017 14:00:00 26,6 17,7 29,1 22,8 19,2 5 3 13 7 - 1017,9 10 0,0
16.08.2017 13:00:00 25,3 17,7 28,1 22,0 19,2 4 2 9 5 - 1018,5 10 0,0
16.08.2017 12:00:00 24,3 16,6 27,0 21,3 19,2 4 2 11 6 WNW 1019,4 60 0,0
16.08.2017 11:00:00 23,1 15,4 25,2 20,6 19,2 2 1 6 4 SSE 1019,9 44 0,0
16.08.2017 10:00:00 21,2 15,1 21,9 20,1 19,2 2 1 11 6 E 1020,5 58 0,0
16.08.2017 09:00:00 18,6 15,1 18,4 20,1 19,2 7 4 14 8 NE 1021,3 60 0,0
16.08.2017 08:00:00 16,4 14,9 15,5 20,3 19,2 10 5 13 7 NNE 1021,8 60 0,0
16.08.2017 07:00:00 15,7 14,7 15,3 20,6 19,2 10 5 18 10 NNE 1021,6 35 0,0
16.08.2017 06:00:00 16,0 15,0 15,4 20,9 19,2 8 4 14 8 N 1021,5 39 0,0
16.08.2017 05:00:00 16,2 14,9 15,8 21,2 19,2 10 5 18 10 NE 1021,6 47 0,0
16.08.2017 04:00:00 16,5 14,9 16,2 21,6 19,2 9 5 15 8 NNE 1021,4 58 0,0
16.08.2017 03:00:00 17,3 16,2 17,0 21,9 19,2 5 3 18 10 WNW 1021,7 37 0,0
16.08.2017 02:00:00 19,3 15,4 17,6 22,2 19,2 11 6 22 12 E 1021,0 60 0,0
16.08.2017 01:00:00 18,1 16,8 17,6 22,5 19,2 14 8 23 12 E 1021,6 6 1,8
16.08.2017 00:00:00 19,0 16,8 18,8 22,9 19,2 3 1 9 5 N 1021,5 60 0,0
15.08.2017 23:00:00 19,8 15,6 18,9 23,2 19,2 2 1 11 6 SSW 1020,8 60 0,0
15.08.2017 22:00:00 20,7 15,5 19,4 23,6 19,2 6 3 13 7 WNW 1020,2 60 0,0
15.08.2017 21:00:00 21,6 15,4 19,3 24,0 19,2 12 6 31 17 SSW 1019,9 60 0,0
15.08.2017 20:00:00 23,8 15,3 22,6 24,2 19,2 5 3 11 6 SSW 1018,6 60 0,0
15.08.2017 19:00:00 25,3 15,6 25,6 24,3 19,2 8 4 15 8 S 1017,6 60 0,0
15.08.2017 18:00:00 26,0 15,4 27,8 24,1 19,2 9 5 13 7 S 1017,6 60 0,0
15.08.2017 17:00:00 27,7 15,0 29,7 23,8 19,2 3 2 7 4 NNE 1017,0 59 0,0
15.08.2017 16:00:00 26,7 15,1 26,5 23,4 19,2 0 0 8 4 N 1017,1 58 0,0
15.08.2017 15:00:00 24,7 15,3 26,0 23,2 19,2 6 3 11 6 SSW 1017,6 60 0,0
15.08.2017 14:00:00 25,2 15,5 26,1 22,7 19,2 8 5 21 12 WSW 1017,8 60 0,0
15.08.2017 13:00:00 26,7 16,0 30,3 21,8 19,2 11 6 18 10 S 1017,6 60 0,0
15.08.2017 12:00:00 25,4 15,4 28,8 21,1 19,2 8 4 16 9 S 1018,2 58 0,0
15.08.2017 11:00:00 24,5 15,1 27,5 20,3 19,2 5 3 13 7 S 1018,6 59 0,0
15.08.2017 10:00:00 23,1 15,2 24,8 19,8 19,2 0 0 5 3 N 1019,1 56 0,0
15.08.2017 09:00:00 20,2 15,2 19,1 19,7 19,2 3 2 8 5 NE 1019,7 55 0,0
15.08.2017 08:00:00 16,6 14,4 15,1 19,9 19,2 5 3 13 7 NNE 1020,3 46 0,0
15.08.2017 07:00:00 15,1 14,0 14,0 20,1 19,2 7 4 11 6 N 1019,7 49 0,0
15.08.2017 06:00:00 14,8 13,7 14,5 20,5 19,2 9 5 12 6 NNE 1019,9 38 0,0
15.08.2017 05:00:00 15,2 14,2 14,6 20,8 19,2 4 2 10 5 N 1019,9 33 0,0
15.08.2017 04:00:00 15,6 14,6 15,3 21,2 19,2 6 4 13 7 N 1019,7 39 0,0
15.08.2017 03:00:00 16,0 14,7 15,4 21,6 19,2 6 3 13 7 N 1019,6 37 0,0
15.08.2017 02:00:00 16,5 15,0 16,3 22,1 19,2 10 5 14 8 NNE 1019,1 40 0,0
15.08.2017 01:00:00 17,6 15,8 16,9 22,5 19,2 6 4 12 7 N 1019,0 58 0,0
15.08.2017 00:00:00 18,7 16,3 18,1 23,0 19,2 7 4 14 7 N 1018,8 60 0,0
14.08.2017 23:00:00 19,1 16,5 18,6 23,5 19,2 8 4 13 7 N 1018,4 60 0,0
14.08.2017 22:00:00 19,9 16,7 19,0 24,0 19,2 9 5 13 7 N 1017,8 60 0,0
14.08.2017 21:00:00 20,9 17,1 20,4 24,3 19,2 8 4 11 6 NNE 1017,1 60 0,0
14.08.2017 20:00:00 25,6 16,2 25,0 24,5 19,2 7 4 15 8 S 1015,4 60 0,0
14.08.2017 19:00:00 28,0 17,5 30,9 24,4 19,3 3 2 18 10 SSW 1015,0 60 0,0
14.08.2017 18:00:00 27,6 16,6 30,6 24,2 19,3 12 6 24 13 SSW 1015,4 60 0,0
14.08.2017 17:00:00 28,5 16,7 31,2 23,7 19,3 6 3 19 11 S 1015,2 55 0,0
14.08.2017 16:00:00 27,7 16,3 32,1 23,0 19,3 9 5 19 10 S 1015,7 58 0,0
14.08.2017 15:00:00 27,5 15,8 30,8 22,2 19,3 7 4 16 9 S 1016,2 37 0,0
14.08.2017 14:00:00 26,5 15,8 30,6 21,4 19,3 8 4 22 12 SSW 1017,0 18 0,0
14.08.2017 13:00:00 25,2 16,1 27,2 20,5 19,3 6 3 14 7 WSW 1017,6 60 0,0
14.08.2017 12:00:00 23,2 15,3 26,1 19,7 19,3 2 1 9 5 SSW 1018,4 58 0,0
14.08.2017 11:00:00 22,4 14,8 24,2 18,9 19,3 2 1 9 5 SSW 1018,8 44 0,0
14.08.2017 10:00:00 20,1 14,9 22,6 18,3 19,3 3 2 6 3 S 1019,2 57 0,0
14.08.2017 09:00:00 18,4 14,7 18,3 18,1 19,3 4 2 9 5 NE 1019,5 46 0,0
14.08.2017 08:00:00 15,2 13,2 12,8 18,2 19,3 8 5 10 6 NNE 1020,0 41 0,0
14.08.2017 07:00:00 12,7 11,9 12,2 18,6 19,3 8 4 11 6 NNE 1020,4 39 0,0
14.08.2017 06:00:00 12,4 11,8 12,0 18,8 19,3 8 4 9 5 NNE 1020,4 35 0,0
14.08.2017 05:00:00 13,0 12,1 12,6 19,2 19,3 4 2 10 5 N 1020,3 53 0,0
14.08.2017 04:00:00 13,5 12,6 13,1 19,5 19,3 7 4 10 6 NNE 1020,0 54 0,0
14.08.2017 03:00:00 14,0 12,9 13,7 19,9 19,3 9 5 12 7 NNE 1019,9 47 0,0
14.08.2017 02:00:00 14,5 13,4 14,0 20,3 19,4 9 5 10 6 NNE 1019,8 43 0,0
14.08.2017 01:00:00 15,3 13,8 14,9 20,7 19,4 6 3 11 6 N 1019,8 60 0,0
14.08.2017 00:00:00 15,5 14,0 15,1 21,1 19,4 9 5 10 5 NNE 1019,8 60 0,0
13.08.2017 23:00:00 17,0 14,5 16,3 21,5 19,4 5 3 9 5 N 1019,6 60 0,0
13.08.2017 22:00:00 18,4 14,7 16,6 21,9 19,4 4 2 8 4 SW 1019,0 60 0,0
13.08.2017 21:00:00 20,7 14,8 19,7 22,3 19,4 5 3 12 7 NW 1018,2 59 0,0
13.08.2017 20:00:00 22,4 14,8 22,1 22,5 19,4 9 5 16 9 WSW 1017,7 60 0,0
13.08.2017 19:00:00 24,8 14,0 26,0 22,5 19,4 9 5 15 8 W 1017,1 56 0,0
13.08.2017 18:00:00 25,5 13,4 28,7 22,3 19,4 5 3 18 10 NW 1017,0 59 0,0
13.08.2017 17:00:00 25,0 12,6 28,3 22,0 19,4 11 6 20 11 W 1017,3 51 0,0
13.08.2017 16:00:00 24,6 13,8 27,4 21,6 19,4 11 6 30 16 W 1017,4 52 0,0
13.08.2017 15:00:00 24,0 12,9 26,9 20,9 19,4 15 8 24 13 WNW 1017,9 60 0,0
13.08.2017 14:00:00 23,1 15,2 25,9 20,1 19,4 11 6 22 12 WSW 1018,3 60 0,0
13.08.2017 13:00:00 22,2 14,3 23,0 19,3 19,5 6 3 14 7 S 1019,1 60 0,0
13.08.2017 12:00:00 21,0 13,9 23,3 18,4 19,5 8 4 15 8 SSE 1019,8 58 0,0
13.08.2017 11:00:00 19,7 12,7 22,4 17,7 19,5 3 2 9 5 SSE 1020,6 60 0,0
13.08.2017 10:00:00 17,7 11,9 19,7 17,1 19,5 0 0 7 4 N 1021,0 59 0,0
13.08.2017 09:00:00 15,9 12,1 15,8 17,0 19,5 0 0 8 4 N 1021,6 60 0,0
13.08.2017 08:00:00 12,5 10,6 10,1 17,1 19,5 6 3 9 5 NNE 1021,7 54 0,0
13.08.2017 07:00:00 9,9 9,3 9,6 17,4 19,5 4 2 7 4 NNE 1022,2 48 0,0
13.08.2017 06:00:00 10,2 9,1 9,9 17,8 19,5 5 3 11 6 NNE 1022,0 54 0,0
13.08.2017 05:00:00 10,8 9,7 10,4 18,1 19,5 9 5 11 6 N 1021,9 49 0,0
13.08.2017 04:00:00 11,0 10,1 10,5 18,5 19,5 0 0 13 7 N 1022,3 45 0,0
13.08.2017 03:00:00 11,5 10,4 10,9 18,9 19,6 3 2 10 5 N 1022,3 54 0,0
13.08.2017 02:00:00 11,7 10,1 11,4 19,3 19,6 7 4 11 6 N 1022,3 59 0,0
13.08.2017 01:00:00 12,7 10,6 12,1 19,8 19,6 6 4 11 6 N 1022,2 60 0,0
13.08.2017 00:00:00 13,2 11,4 12,5 20,2 19,6 4 2 8 5 N 1022,1 60 0,0
12.08.2017 23:00:00 13,8 11,8 13,1 20,7 19,6 0 0 7 4 N 1022,0 60 0,0
12.08.2017 22:00:00 15,2 12,3 14,2 21,2 19,6 0 0 12 6 N 1021,4 60 0,0
12.08.2017 21:00:00 18,5 10,8 17,6 21,6 19,6 7 4 14 8 WNW 1020,3 60 0,0
12.08.2017 20:00:00 21,5 10,9 23,6 21,8 19,6 6 3 12 7 WNW 1019,7 60 0,0
12.08.2017 19:00:00 22,6 10,4 25,2 21,9 19,7 6 3 17 9 WNW 1019,3 57 0,0
12.08.2017 18:00:00 22,5 9,6 26,1 21,7 19,7 6 3 16 9 NW 1019,4 60 0,0
12.08.2017 17:00:00 22,7 9,1 26,0 21,3 19,6 3 2 16 9 NW 1019,6 60 0,0
12.08.2017 16:00:00 21,6 7,8 25,0 20,8 19,6 8 5 23 12 NNW 1020,1 59 0,0
12.08.2017 15:00:00 21,4 9,3 24,7 20,1 19,7 10 6 20 11 WNW 1020,5 60 0,0
12.08.2017 14:00:00 20,9 11,5 21,5 19,3 19,7 8 4 19 10 W 1020,8 56 0,0
12.08.2017 13:00:00 19,6 11,6 19,5 18,4 19,7 6 4 17 9 WSW 1021,1 59 0,0
12.08.2017 12:00:00 18,2 13,1 21,6 17,6 19,7 6 3 13 7 S 1021,6 58 0,0
12.08.2017 11:00:00 16,6 10,9 19,0 16,9 19,7 3 2 13 7 S 1022,2 59 0,0
12.08.2017 10:00:00 15,2 11,0 16,5 16,4 19,7 3 2 13 7 NNE 1022,5 58 0,0
12.08.2017 09:00:00 12,9 10,6 11,6 16,3 19,7 3 2 10 5 NE 1022,8 60 0,0
12.08.2017 08:00:00 11,1 10,6 10,1 16,3 19,7 2 1 6 3 SE 1023,0 48 0,0
12.08.2017 07:00:00 9,8 9,5 9,4 16,5 19,7 0 0 4 2 N 1022,9 13 0,0
12.08.2017 06:00:00 9,4 9,1 9,1 16,7 19,7 0 0 6 3 N 1022,8 0,4 0,0
12.08.2017 05:00:00 9,5 9,2 9,6 16,9 19,7 4 2 6 3 N 1022,8 0,5 0,0
12.08.2017 04:00:00 10,5 10,2 10,4 17,2 19,8 0 0 9 5 N 1023,0 0,6 0,0
12.08.2017 03:00:00 10,4 10,1 9,8 17,5 19,8 4 2 8 5 WNW 1022,8 0,6 0,0
12.08.2017 02:00:00 10,6 10,0 10,4 17,8 19,8 3 2 9 5 W 1022,7 10 0,0
12.08.2017 01:00:00 11,4 10,5 11,2 18,0 19,8 4 2 7 4 W 1022,6 43 0,0
12.08.2017 00:00:00 11,9 11,0 11,6 18,3 19,8 3 1 9 5 ENE 1022,5 37 0,0
11.08.2017 23:00:00 12,4 11,5 12,3 18,5 19,8 4 2 7 4 NW 1022,4 58 0,0
11.08.2017 22:00:00 12,8 11,4 12,4 18,8 19,8 0 0 9 5 N 1022,1 60 0,0
11.08.2017 21:00:00 12,9 10,8 12,2 19,0 19,8 3 1 9 5 SW 1021,7 11 0,2
11.08.2017 20:00:00 13,5 11,0 12,8 19,1 19,8 6 3 16 9 WSW 1021,0 25 0,0
11.08.2017 19:00:00 15,2 10,4 15,7 19,0 19,8 4 2 19 10 W 1020,1 60 0,0
11.08.2017 18:00:00 15,6 11,6 16,4 18,7 19,8 10 6 19 10 SW 1019,8 60 0,0
11.08.2017 17:00:00 14,9 12,2 14,5 18,5 19,8 11 6 16 9 S 1019,7 60 0,0
11.08.2017 16:00:00 14,1 11,8 13,0 18,3 19,8 5 3 18 10 WSW 1020,0 18 0,8
11.08.2017 15:00:00 14,2 11,2 12,9 18,1 19,9 8 5 19 10 W 1019,9 60 0,6
11.08.2017 14:00:00 13,7 11,4 13,8 17,9 19,9 12 6 19 10 W 1019,6 51 0,2
11.08.2017 13:00:00 13,6 11,8 13,0 17,8 19,9 9 5 19 11 SW 1019,4 59 0,2
11.08.2017 12:00:00 12,9 11,3 12,8 17,7 19,9 11 6 22 12 S 1019,2 19 0,8
11.08.2017 11:00:00 12,6 11,0 11,5 17,6 19,9 11 6 19 11 SSW 1018,8 57 0,2
11.08.2017 10:00:00 11,8 10,5 11,6 17,6 19,9 11 6 21 12 SSW 1018,5 11 1,0
11.08.2017 09:00:00 13,4 10,0 13,5 17,6 19,9 8 4 16 9 W 1017,6 60 0,0
11.08.2017 08:00:00 13,1 10,8 12,2 17,7 19,9 3 2 8 4 W 1017,1 60 0,0
11.08.2017 07:00:00 11,9 11,0 11,6 17,8 19,9 0 0 4 2 N 1017,1 60 0,0
11.08.2017 06:00:00 11,3 10,7 10,9 18,0 19,9 3 1 8 4 SW 1017,0 60 0,0
11.08.2017 05:00:00 11,3 10,2 11,2 18,2 19,9 6 4 8 5 NE 1017,4 60 0,0
11.08.2017 04:00:00 11,0 10,1 10,8 18,5 19,9 2 1 9 5 WSW 1017,7 60 0,0
11.08.2017 03:00:00 11,8 10,7 11,3 18,8 19,9 2 1 8 4 WNW 1018,1 60 0,0
11.08.2017 02:00:00 11,8 10,2 11,6 19,1 19,9 3 1 10 5 NW 1018,5 60 0,0
11.08.2017 01:00:00 12,6 10,7 12,0 19,4 19,9 0 0 3 2 N 1018,8 60 0,0
11.08.2017 00:00:00 12,0 10,4 11,3 19,8 19,9 2 1 13 7 NW 1019,0 60 0,0
10.08.2017 23:00:00 11,6 9,2 11,0 20,2 19,9 4 2 9 5 NE 1018,9 60 0,0
10.08.2017 22:00:00 13,6 9,8 12,7 20,7 19,9 4 2 11 6 WNW 1018,5 60 0,0
10.08.2017 21:00:00 14,6 9,8 14,1 21,0 19,9 7 4 11 6 WNW 1018,2 60 0,0
10.08.2017 20:00:00 16,9 10,0 17,7 21,3 19,9 7 4 16 9 NNW 1017,6 60 0,0
10.08.2017 19:00:00 18,2 10,3 19,3 21,6 20,0 9 5 16 9 N 1017,3 57 0,0
10.08.2017 18:00:00 17,9 9,5 19,3 21,6 19,9 9 5 15 8 N 1017,5 60 0,0
10.08.2017 17:00:00 18,9 10,2 19,7 21,3 20,0 2 1 13 7 E 1017,3 60 0,0

tt = Température de l'air
td = dewpoint
tt 5cm = Température de l'air 5cm
tt -20cm = Température de l'air -20cm
tt -100cm = Température de l'air -100cm
ff = Vitesse du vent
fx = gusts
dd = Direction du vent
ppp = reduced air pressure
vv = visibility
rr = Quantités de précipitations

stations d'obs. à proximité